Voltar ao catálogo

FENGYUN 1C DEB

AtivoSSO
NORAD 30514·DEBRIS·🇨🇳 China

Lançado May 10, 1999 de Taiyuan Satellite Launch Center

Loading…

Próximas Passagens (próximas 24 horas)

TLE

AtualizadoSource: Space-Track

Época: Sep 13, 2026, 18:34 UTC

1 30514U 99025AJC 26256.77417417  .00001090  00000-0  33709-3 0  9992
2 30514  98.3937 278.0459 0171218 355.0368   4.9113 14.35220929 21670

Acompanhe FENGYUN 1C DEB em tempo real com AllMySat

Download on the App Store